| time (UTC) | temp F | wind direction | speed knots | gust knots | rain 1hr in | rain 24hr in | rain mn in | humidity % | barometer mb |
| 20260507230504 | 50 | 115 | 1.7 | 1.7 | 0.00 | 0.00 | 0.01 | 99 | 1017.3 |
| 20260507225503 | 50 | 154 | 0.9 | 1.7 | 0.01 | 0.00 | 0.01 | 99 | 1017.3 |
| 20260507225003 | 50 | 175 | 0.0 | 0.9 | 0.01 | 0.00 | 0.01 | 99 | 1017.4 |
| 20260507224504 | 50 | 109 | 0.9 | 1.7 | 0.01 | 0.00 | 0.01 | 99 | 1017.4 |
| 20260507224005 | 51 | 169 | 0.9 | 1.7 | 0.01 | 0.00 | 0.01 | 99 | 1017.3 |
| 20260507223504 | 51 | 129 | 0.9 | 1.7 | 0.01 | 0.00 | 0.01 | 99 | 1017.2 |
| 20260507223002 | 51 | 102 | 0.0 | 0.9 | 0.01 | 0.00 | 0.01 | 99 | 1017.1 |
| 20260507222504 | 51 | 105 | 1.7 | 2.6 | 0.01 | 0.00 | 0.01 | 98 | 1017.1 |
| 20260507221504 | 51 | 172 | 0.0 | 1.7 | 0.01 | 0.00 | 0.01 | 98 | 1017.2 |
| 20260507221005 | 51 | 140 | 0.0 | 1.7 | 0.01 | 0.00 | 0.01 | 98 | 1017.1 |
| 20260507220503 | 51 | 100 | 0.9 | 2.6 | 0.01 | 0.00 | 0.01 | 98 | 1017.1 |
| 20260507220003 | 51 | 102 | 0.9 | 0.9 | 0.00 | 0.00 | 0.16 | 98 | 1017.2 |
| 20260507215503 | 52 | 149 | 0.0 | 2.6 | 0.00 | 0.00 | 0.16 | 98 | 1017.1 |
| 20260507214502 | 52 | 182 | 0.9 | 1.7 | 0.00 | 0.00 | 0.16 | 97 | 1017.2 |
| 20260507214004 | 52 | 211 | 0.9 | 1.7 | 0.00 | 0.00 | 0.16 | 97 | 1016.9 |
| 20260507213503 | 52 | 195 | 0.0 | 0.9 | 0.00 | 0.00 | 0.16 | 97 | 1016.8 |
| 20260507213003 | 52 | 121 | 1.7 | 2.6 | 0.00 | 0.00 | 0.16 | 97 | 1016.9 |
| 20260507212502 | 52 | 191 | 0.9 | 1.7 | 0.00 | 0.00 | 0.16 | 97 | 1016.9 |
| 20260507211502 | 52 | 132 | 0.9 | 0.9 | 0.00 | 0.00 | 0.16 | 97 | 1016.9 |
| 20260507211006 | 52 | 179 | 1.7 | 1.7 | 0.00 | 0.00 | 0.16 | 97 | 1016.7 |
| 20260507210505 | 53 | 172 | 0.9 | 0.9 | 0.00 | 0.00 | 0.16 | 97 | 1016.8 |
| 20260507210003 | 53 | 202 | 0.0 | 0.9 | 0.00 | 0.00 | 0.16 | 97 | 1017.0 |
| 20260507205506 | 53 | 213 | 0.0 | 0.0 | 0.00 | 0.00 | 0.16 | 97 | 1016.8 |
| 20260507205002 | 53 | 214 | 0.0 | 0.9 | 0.00 | 0.00 | 0.16 | 97 | 1016.7 |
| 20260507204003 | 53 | 244 | 0.0 | 0.9 | 0.00 | 0.00 | 0.16 | 97 | 1016.6 |
| 20260507203503 | 53 | 36 | 0.0 | 0.9 | 0.00 | 0.00 | 0.16 | 98 | 1016.5 |
| 20260507203004 | 53 | 128 | 0.9 | 1.7 | 0.00 | 0.00 | 0.16 | 97 | 1016.5 |
| 20260507202503 | 53 | 232 | 0.0 | 0.9 | 0.00 | 0.00 | 0.16 | 98 | 1016.5 |
| 20260507202003 | 53 | 187 | 0.9 | 0.9 | 0.00 | 0.00 | 0.16 | 98 | 1016.6 |
| 20260507201503 | 53 | 135 | 0.9 | 2.6 | 0.00 | 0.00 | 0.16 | 98 | 1016.6 |
| 20260507201003 | 53 | 217 | 0.0 | 1.7 | 0.00 | 0.00 | 0.16 | 98 | 1016.6 |
| 20260507200503 | 53 | 113 | 0.9 | 1.7 | 0.00 | 0.00 | 0.16 | 98 | 1016.5 |
| 20260507200002 | 53 | 135 | 0.9 | 0.9 | 0.00 | 0.00 | 0.16 | 98 | 1016.4 |
| 20260507195502 | 54 | 242 | 0.9 | 1.7 | 0.00 | 0.00 | 0.16 | 98 | 1016.2 |
| 20260507195002 | 54 | 182 | 0.9 | 4.3 | 0.00 | 0.00 | 0.16 | 98 | 1016.2 |
| 20260507194503 | 54 | 215 | 2.6 | 4.3 | 0.00 | 0.00 | 0.16 | 98 | 1016.3 |
| 20260507194003 | 54 | 185 | 0.9 | 2.6 | 0.00 | 0.00 | 0.16 | 98 | 1016.2 |
| 20260507193504 | 54 | 232 | 0.0 | 1.7 | 0.00 | 0.00 | 0.16 | 98 | 1016.2 |
| 20260507192502 | 54 | 231 | 0.0 | 0.9 | 0.01 | 0.00 | 0.16 | 98 | 1016.1 |
| 20260507192004 | 54 | 120 | 0.9 | 1.7 | 0.02 | 0.00 | 0.16 | 98 | 1016.1 |
| 20260507191502 | 54 | 156 | 0.9 | 2.6 | 0.02 | 0.00 | 0.16 | 98 | 1016.0 |
| 20260507191004 | 55 | 91 | 0.0 | 0.9 | 0.02 | 0.00 | 0.16 | 98 | 1015.9 |
| 20260507190503 | 55 | 204 | 0.9 | 5.2 | 0.02 | 0.00 | 0.16 | 98 | 1015.5 |
| 20260507190005 | 55 | 189 | 0.0 | 0.9 | 0.02 | 0.00 | 0.16 | 98 | 1015.9 |
| 20260507185002 | 55 | 137 | 0.0 | 0.0 | 0.03 | 0.00 | 0.16 | 98 | 1015.7 |
| 20260507184504 | 55 | 137 | 0.0 | 0.0 | 0.04 | 0.00 | 0.16 | 98 | 1015.4 |
| 20260507184003 | 55 | 141 | 0.0 | 0.0 | 0.06 | 0.00 | 0.16 | 98 | 1015.3 |
| 20260507183502 | 55 | 238 | 0.0 | 0.0 | 0.07 | 0.00 | 0.16 | 97 | 1015.1 |
| 20260507183004 | 55 | 238 | 0.0 | 0.0 | 0.06 | 0.00 | 0.15 | 97 | 1015.3 |
| 20260507182504 | 55 | 238 | 0.0 | 0.0 | 0.05 | 0.00 | 0.14 | 96 | 1015.3 |
| 20260507182005 | 56 | 231 | 0.0 | 0.0 | 0.05 | 0.00 | 0.14 | 96 | 1014.8 |
| 20260507181504 | 56 | 210 | 0.0 | 0.9 | 0.05 | 0.00 | 0.14 | 96 | 1014.9 |
| 20260507181002 | 56 | 170 | 0.0 | 0.9 | 0.05 | 0.00 | 0.14 | 96 | 1014.8 |
| 20260507180505 | 56 | 263 | 0.0 | 0.0 | 0.05 | 0.00 | 0.14 | 96 | 1014.6 |
| 20260507180004 | 56 | 259 | 0.0 | 0.9 | 0.05 | 0.00 | 0.14 | 95 | 1014.6 |
| 20260507175502 | 56 | 234 | 0.0 | 1.7 | 0.05 | 0.00 | 0.14 | 95 | 1015.0 |
| 20260507175003 | 57 | 193 | 0.0 | 0.0 | 0.03 | 0.00 | 0.12 | 95 | 1014.8 |
| 20260507174505 | 57 | 72 | 0.9 | 0.9 | 0.02 | 0.00 | 0.11 | 94 | 1014.9 |
| 20260507174004 | 57 | 151 | 0.0 | 0.0 | 0.01 | 0.00 | 0.10 | 94 | 1014.7 |
| 20260507173503 | 57 | 157 | 0.0 | 0.0 | 0.00 | 0.00 | 0.09 | 93 | 1014.9 |
| 20260507173004 | 57 | 196 | 0.0 | 0.9 | 0.00 | 0.00 | 0.09 | 93 | 1014.6 |
| 20260507172502 | 57 | 231 | 0.0 | 0.9 | 0.00 | 0.00 | 0.09 | 93 | 1014.6 |
| 20260507172003 | 57 | 206 | 0.0 | 1.7 | 0.00 | 0.00 | 0.09 | 93 | 1014.3 |
| 20260507171503 | 57 | 259 | 0.9 | 1.7 | 0.00 | 0.00 | 0.09 | 93 | 1014.2 |
| 20260507171005 | 57 | 158 | 0.0 | 1.7 | 0.00 | 0.00 | 0.09 | 93 | 1014.3 |
| 20260507170503 | 57 | 126 | 0.0 | 0.9 | 0.00 | 0.00 | 0.09 | 92 | 1014.1 |
| 20260507170004 | 57 | 242 | 0.0 | 0.0 | 0.00 | 0.00 | 0.09 | 92 | 1014.3 |
| 20260507165505 | 57 | 232 | 0.0 | 0.9 | 0.00 | 0.00 | 0.09 | 91 | 1014.3 |
| 20260507165003 | 58 | 223 | 0.0 | 0.0 | 0.00 | 0.00 | 0.09 | 91 | 1014.0 |
| 20260507164502 | 58 | 226 | 0.0 | 0.9 | 0.00 | 0.00 | 0.09 | 91 | 1014.0 |
| 20260507164003 | 58 | 234 | 1.7 | 1.7 | 0.00 | 0.00 | 0.09 | 90 | 1013.9 |
| 20260507163505 | 58 | 225 | 0.0 | 0.9 | 0.00 | 0.00 | 0.09 | 90 | 1014.0 |
| 20260507163003 | 58 | 299 | 0.9 | 1.7 | 0.00 | 0.00 | 0.09 | 91 | 1013.9 |
| 20260507162502 | 58 | 222 | 1.7 | 1.7 | 0.00 | 0.00 | 0.09 | 90 | 1013.7 |
| 20260507162002 | 58 | 269 | 0.9 | 1.7 | 0.00 | 0.00 | 0.09 | 90 | 1013.6 |
| 20260507161505 | 58 | 179 | 0.0 | 0.9 | 0.00 | 0.00 | 0.09 | 90 | 1013.7 |
| 20260507161003 | 58 | 250 | 0.9 | 2.6 | 0.00 | 0.00 | 0.09 | 90 | 1013.6 |
| 20260507160503 | 58 | 265 | 1.7 | 1.7 | 0.00 | 0.00 | 0.09 | 91 | 1014.0 |
| 20260507160003 | 58 | 63 | 0.9 | 0.9 | 0.00 | 0.00 | 0.09 | 92 | 1013.9 |
| 20260507155502 | 58 | 351 | 2.6 | 2.6 | 0.00 | 0.00 | 0.09 | 92 | 1013.9 |
| 20260507155004 | 58 | 292 | 0.0 | 1.7 | 0.00 | 0.00 | 0.09 | 91 | 1013.9 |
| 20260507154503 | 58 | 243 | 0.0 | 2.6 | 0.00 | 0.00 | 0.09 | 91 | 1013.8 |
| 20260507154003 | 59 | 319 | 0.9 | 1.7 | 0.00 | 0.00 | 0.09 | 91 | 1013.7 |
| 20260507153504 | 59 | 261 | 1.7 | 2.6 | 0.00 | 0.00 | 0.09 | 90 | 1013.4 |
| 20260507153003 | 59 | 90 | 0.0 | 1.7 | 0.00 | 0.00 | 0.09 | 89 | 1013.5 |
| 20260507152502 | 59 | 202 | 0.9 | 4.3 | 0.00 | 0.00 | 0.09 | 89 | 1013.6 |
| 20260507152006 | 59 | 300 | 1.7 | 5.2 | 0.00 | 0.00 | 0.09 | 88 | 1013.5 |
| 20260507151504 | 59 | 272 | 0.9 | 2.6 | 0.00 | 0.00 | 0.09 | 88 | 1013.4 |
| 20260507151002 | 59 | 218 | 0.0 | 1.7 | 0.00 | 0.00 | 0.09 | 89 | 1013.3 |
| 20260507150503 | 59 | 260 | 1.7 | 4.3 | 0.01 | 0.00 | 0.09 | 88 | 1013.4 |
| 20260507150003 | 59 | 212 | 1.7 | 5.2 | 0.02 | 0.00 | 0.09 | 88 | 1013.4 |
| 20260507145503 | 59 | 230 | 0.9 | 4.3 | 0.06 | 0.00 | 0.09 | 89 | 1013.3 |
| 20260507145003 | 59 | 208 | 2.6 | 4.3 | 0.09 | 0.00 | 0.09 | 89 | 1013.4 |
| 20260507144503 | 59 | 236 | 0.9 | 4.3 | 0.09 | 0.00 | 0.09 | 89 | 1013.4 |
| 20260507144002 | 59 | 284 | 0.9 | 4.3 | 0.09 | 0.00 | 0.09 | 88 | 1013.2 |
| 20260507143502 | 59 | 255 | 1.7 | 2.6 | 0.09 | 0.00 | 0.09 | 88 | 1013.1 |
| 20260507143004 | 59 | 163 | 2.6 | 4.3 | 0.09 | 0.00 | 0.09 | 88 | 1013.1 |
| 20260507142504 | 59 | 189 | 0.0 | 1.7 | 0.09 | 0.00 | 0.09 | 90 | 1013.0 |
| 20260507142004 | 59 | 186 | 1.7 | 7.0 | 0.09 | 0.00 | 0.09 | 89 | 1013.1 |
| 20260507141506 | 59 | 213 | 2.6 | 4.3 | 0.09 | 0.00 | 0.09 | 90 | 1013.2 |
| 20260507141008 | 59 | 157 | 3.5 | 5.2 | 0.09 | 0.00 | 0.09 | 90 | 1012.9 |
| 20260507140503 | 59 | 187 | 0.0 | 1.7 | 0.08 | 0.00 | 0.08 | 90 | 1013.0 |
| 20260507140003 | 60 | 181 | 1.7 | 5.2 | 0.04 | 0.00 | 0.04 | 87 | 1013.1 |
| 20260507135503 | 63 | 152 | 2.6 | 7.8 | 0.02 | 0.00 | 0.02 | 82 | 1012.9 |
| 20260507135003 | 67 | 216 | 0.9 | 6.1 | 0.00 | 0.00 | 0.00 | 66 | 1012.8 |
| 20260507134504 | 68 | 347 | 0.0 | 1.7 | 0.00 | 0.00 | 0.00 | 63 | 1012.7 |
| 20260507134002 | 68 | 100 | 0.9 | 1.7 | 0.00 | 0.00 | 0.00 | 60 | 1012.6 |
| 20260507133503 | 68 | 141 | 0.9 | 0.9 | 0.00 | 0.00 | 0.00 | 61 | 1012.6 |
| 20260507133002 | 68 | 65 | 0.9 | 4.3 | 0.00 | 0.00 | 0.00 | 61 | 1012.6 |
| 20260507132503 | 69 | 9 | 1.7 | 5.2 | 0.00 | 0.00 | 0.00 | 60 | 1012.5 |
| 20260507132003 | 69 | 27 | 3.5 | 5.2 | 0.00 | 0.00 | 0.00 | 58 | 1012.6 |
| 20260507131503 | 70 | 321 | 0.9 | 6.1 | 0.00 | 0.00 | 0.00 | 56 | 1012.7 |
| 20260507131004 | 70 | 31 | 1.7 | 2.6 | 0.00 | 0.00 | 0.00 | 57 | 1012.6 |
| 20260507130506 | 70 | 342 | 0.9 | 6.1 | 0.00 | 0.00 | 0.00 | 55 | 1012.8 |
| 20260507130004 | 70 | 53 | 1.7 | 5.2 | 0.00 | 0.00 | 0.00 | 54 | 1012.5 |
| 20260507125504 | 71 | 56 | 0.9 | 5.2 | 0.00 | 0.00 | 0.00 | 54 | 1012.8 |
| 20260507125002 | 68 | 23 | 0.0 | 1.7 | 0.00 | 0.00 | 0.00 | 62 | 1013.0 |
| 20260507124504 | 67 | 349 | 0.9 | 2.6 | 0.00 | 0.00 | 0.00 | 67 | 1013.0 |
| 20260507124003 | 66 | 325 | 0.9 | 1.7 | 0.00 | 0.00 | 0.00 | 70 | 1012.9 |
| 20260507123502 | 65 | 352 | 1.7 | 1.7 | 0.00 | 0.00 | 0.00 | 73 | 1012.9 |
| 20260507123003 | 65 | 269 | 1.7 | 4.3 | 0.00 | 0.00 | 0.00 | 74 | 1013.0 |
| 20260507122502 | 66 | 311 | 0.0 | 0.9 | 0.00 | 0.00 | 0.00 | 71 | 1013.1 |
| 20260507122004 | 65 | 331 | 0.0 | 1.7 | 0.00 | 0.00 | 0.00 | 73 | 1013.0 |
| 20260507121503 | 65 | 30 | 0.9 | 1.7 | 0.00 | 0.00 | 0.00 | 73 | 1013.0 |
| 20260507121003 | 66 | 345 | 0.9 | 1.7 | 0.00 | 0.00 | 0.00 | 69 | 1013.0 |
| 20260507120504 | 66 | 4 | 0.0 | 1.7 | 0.00 | 0.00 | 0.00 | 65 | 1012.9 |
| 20260507120004 | 66 | 292 | 0.0 | 1.7 | 0.00 | 0.00 | 0.00 | 67 | 1013.2 |
| 20260507115503 | 67 | 178 | 0.0 | 0.9 | 0.00 | 0.00 | 0.00 | 66 | 1013.4 |
| 20260507115002 | 67 | 248 | 0.0 | 0.9 | 0.00 | 0.00 | 0.00 | 65 | 1013.1 |
| 20260507114503 | 67 | 228 | 0.0 | 0.9 | 0.00 | 0.00 | 0.00 | 64 | 1013.1 |
| 20260507114006 | 69 | 32 | 0.9 | 1.7 | 0.00 | 0.00 | 0.00 | 60 | 1013.0 |
| 20260507113504 | 71 | 232 | 2.6 | 2.6 | 0.00 | 0.00 | 0.00 | 55 | 1012.8 |
| 20260507113004 | 70 | 274 | 0.9 | 0.9 | 0.00 | 0.00 | 0.00 | 55 | 1013.0 |
| 20260507112504 | 69 | 233 | 0.0 | 0.9 | 0.00 | 0.00 | 0.00 | 58 | 1012.9 |
| 20260507112003 | 69 | 234 | 0.0 | 2.6 | 0.00 | 0.00 | 0.00 | 60 | 1012.9 |
| 20260507111506 | 68 | 238 | 0.9 | 0.9 | 0.00 | 0.00 | 0.00 | 59 | 1013.0 |
| 20260507111004 | 68 | 123 | 0.9 | 1.7 | 0.00 | 0.00 | 0.00 | 62 | 1013.2 |
| 20260507110504 | 68 | 68 | 0.0 | 0.9 | 0.00 | 0.00 | 0.00 | 62 | 1013.1 |
| 20260507110003 | 67 | 347 | 0.0 | 0.9 | 0.00 | 0.00 | 0.00 | 62 | 1013.2 |
| 20260507105504 | 67 | 32 | 0.0 | 0.9 | 0.00 | 0.00 | 0.00 | 62 | 1013.0 |
| 20260507105004 | 66 | 26 | 0.0 | 0.9 | 0.00 | 0.00 | 0.00 | 63 | 1013.1 |
| 20260507104504 | 67 | 179 | 0.9 | 2.6 | 0.00 | 0.00 | 0.00 | 66 | 1012.9 |
| 20260507104006 | 66 | 205 | 0.9 | 2.6 | 0.00 | 0.00 | 0.00 | 65 | 1013.1 |
| 20260507103503 | 66 | 105 | 0.0 | 0.9 | 0.00 | 0.00 | 0.00 | 66 | 1012.8 |
| 20260507103004 | 66 | 128 | 1.7 | 2.6 | 0.00 | 0.00 | 0.00 | 67 | 1013.1 |
| 20260507102504 | 66 | 5 | 0.9 | 1.7 | 0.00 | 0.00 | 0.00 | 67 | 1012.8 |
| 20260507102004 | 67 | 202 | 1.7 | 2.6 | 0.00 | 0.00 | 0.00 | 64 | 1013.0 |
| 20260507101502 | 66 | 119 | 0.0 | 0.9 | 0.00 | 0.00 | 0.00 | 67 | 1012.8 |
| 20260507101003 | 66 | 116 | 0.9 | 1.7 | 0.00 | 0.00 | 0.00 | 67 | 1012.8 |
| 20260507100503 | 66 | 55 | 1.7 | 4.3 | 0.00 | 0.00 | 0.00 | 67 | 1012.9 |
| 20260507100004 | 66 | 143 | 0.9 | 2.6 | 0.00 | 0.00 | 0.00 | 67 | 1012.8 |
| 20260507095502 | 65 | 86 | 2.6 | 4.3 | 0.00 | 0.00 | 0.00 | 68 | 1012.7 |
| 20260507095002 | 65 | 114 | 0.9 | 1.7 | 0.00 | 0.00 | 0.00 | 68 | 1012.6 |
| 20260507094503 | 66 | 119 | 0.0 | 2.6 | 0.00 | 0.00 | 0.00 | 68 | 1012.7 |
| 20260507094003 | 66 | 101 | 2.6 | 4.3 | 0.00 | 0.00 | 0.00 | 68 | 1012.7 |
| 20260507093504 | 65 | 0 | 0.9 | 1.7 | 0.00 | 0.00 | 0.00 | 68 | 1012.7 |
| 20260507093004 | 65 | 71 | 0.9 | 2.6 | 0.00 | 0.00 | 0.00 | 71 | 1012.7 |
| 20260507092503 | 65 | 78 | 1.7 | 2.6 | 0.00 | 0.00 | 0.00 | 70 | 1012.5 |
| 20260507092002 | 65 | 111 | 0.9 | 2.6 | 0.00 | 0.00 | 0.00 | 70 | 1012.6 |
| 20260507091504 | 64 | 179 | 1.7 | 1.7 | 0.00 | 0.00 | 0.00 | 72 | 1012.6 |
| 20260507091002 | 64 | 146 | 1.7 | 2.6 | 0.00 | 0.00 | 0.00 | 74 | 1012.6 |
| 20260507090503 | 64 | 84 | 0.9 | 2.6 | 0.00 | 0.00 | 0.00 | 74 | 1012.6 |
| 20260507090002 | 63 | 243 | 1.7 | 1.7 | 0.00 | 0.00 | 0.00 | 76 | 1012.3 |
| 20260507085502 | 63 | 114 | 3.5 | 4.3 | 0.00 | 0.00 | 0.00 | 76 | 1012.5 |
| 20260507085003 | 62 | 49 | 3.5 | 4.3 | 0.00 | 0.00 | 0.00 | 76 | 1012.3 |
| 20260507084502 | 62 | 134 | 0.9 | 5.2 | 0.00 | 0.00 | 0.00 | 77 | 1012.3 |
| 20260507084003 | 62 | 66 | 1.7 | 2.6 | 0.00 | 0.00 | 0.00 | 78 | 1012.1 |
| 20260507083504 | 62 | 187 | 2.6 | 5.2 | 0.00 | 0.00 | 0.00 | 78 | 1012.1 |
| 20260507083005 | 62 | 133 | 2.6 | 7.0 | 0.00 | 0.00 | 0.00 | 79 | 1011.9 |
| 20260507082503 | 62 | 92 | 0.9 | 1.7 | 0.00 | 0.00 | 0.00 | 80 | 1011.9 |
| 20260507082003 | 62 | 113 | 1.7 | 5.2 | 0.00 | 0.00 | 0.00 | 79 | 1011.9 |
| 20260507081503 | 62 | 122 | 2.6 | 2.6 | 0.00 | 0.00 | 0.00 | 79 | 1011.9 |
| 20260507081004 | 62 | 189 | 1.7 | 4.3 | 0.00 | 0.00 | 0.00 | 79 | 1011.9 |
| 20260507080504 | 62 | 112 | 1.7 | 2.6 | 0.00 | 0.00 | 0.00 | 79 | 1011.9 |
| 20260507080005 | 62 | 59 | 2.6 | 5.2 | 0.00 | 0.00 | 0.00 | 78 | 1011.8 |
| 20260507075504 | 62 | 131 | 0.9 | 1.7 | 0.00 | 0.00 | 0.00 | 81 | 1011.9 |
| 20260507075003 | 61 | 65 | 2.6 | 4.3 | 0.00 | 0.00 | 0.00 | 80 | 1011.7 |
| 20260507074504 | 61 | 58 | 1.7 | 1.7 | 0.00 | 0.00 | 0.00 | 81 | 1011.6 |
| 20260507074003 | 61 | 130 | 1.7 | 2.6 | 0.00 | 0.00 | 0.00 | 82 | 1011.5 |
| 20260507073504 | 61 | 138 | 2.6 | 4.3 | 0.00 | 0.00 | 0.00 | 82 | 1011.5 |
| 20260507073002 | 60 | 127 | 0.0 | 4.3 | 0.00 | 0.00 | 0.00 | 83 | 1011.4 |
| 20260507072503 | 61 | 109 | 2.6 | 6.1 | 0.00 | 0.00 | 0.00 | 81 | 1011.3 |
| 20260507072004 | 61 | 112 | 0.9 | 2.6 | 0.00 | 0.00 | 0.00 | 81 | 1011.2 |
| 20260507071504 | 62 | 91 | 3.5 | 4.3 | 0.00 | 0.00 | 0.00 | 80 | 1011.2 |
| 20260507071004 | 61 | 73 | 0.9 | 2.6 | 0.00 | 0.00 | 0.00 | 81 | 1011.1 |
| 20260507070504 | 61 | 65 | 1.7 | 6.1 | 0.00 | 0.00 | 0.00 | 81 | 1011.2 |
| 20260507070008 | 61 | 67 | 0.9 | 4.3 | 0.00 | 0.00 | 0.00 | 80 | 1011.0 |
| 20260507065503 | 62 | 96 | 1.7 | 4.3 | 0.00 | 0.00 | 0.00 | 79 | 1010.9 |
| 20260507065002 | 62 | 161 | 2.6 | 4.3 | 0.00 | 0.00 | 0.00 | 79 | 1010.9 |
| 20260507064504 | 62 | 340 | 2.6 | 5.2 | 0.00 | 0.00 | 0.00 | 78 | 1010.8 |
| 20260507064004 | 62 | 65 | 1.7 | 1.7 | 0.00 | 0.00 | 0.00 | 77 | 1010.6 |
| 20260507063503 | 62 | 71 | 2.6 | 6.1 | 0.00 | 0.00 | 0.00 | 78 | 1010.7 |
| 20260507063003 | 61 | 57 | 1.7 | 2.6 | 0.00 | 0.00 | 0.00 | 79 | 1010.7 |
| 20260507062504 | 61 | 31 | 1.7 | 4.3 | 0.00 | 0.00 | 0.00 | 80 | 1010.6 |
| 20260507062002 | 61 | 75 | 0.9 | 2.6 | 0.00 | 0.00 | 0.00 | 81 | 1010.6 |
| 20260507061505 | 61 | 9 | 0.9 | 5.2 | 0.00 | 0.00 | 0.00 | 81 | 1010.6 |
| 20260507061005 | 61 | 119 | 0.9 | 0.9 | 0.00 | 0.00 | 0.00 | 82 | 1010.2 |
| 20260507060502 | 61 | 137 | 0.0 | 0.0 | 0.00 | 0.00 | 0.00 | 82 | 1010.4 |
| 20260507060003 | 61 | 140 | 0.9 | 0.9 | 0.00 | 0.00 | 0.00 | 83 | 1010.4 |
| 20260507055503 | 61 | 137 | 0.0 | 0.9 | 0.00 | 0.00 | 0.00 | 82 | 1010.3 |
| 20260507055004 | 60 | 143 | 0.0 | 0.0 | 0.00 | 0.00 | 0.00 | 84 | 1010.3 |
| 20260507054504 | 60 | 200 | 0.0 | 0.9 | 0.00 | 0.00 | 0.00 | 85 | 1010.3 |
| 20260507054004 | 59 | 295 | 0.0 | 0.9 | 0.00 | 0.00 | 0.00 | 85 | 1010.1 |
| 20260507053503 | 59 | 272 | 0.0 | 0.9 | 0.00 | 0.00 | 0.00 | 85 | 1010.2 |
| 20260507053003 | 59 | 263 | 0.0 | 0.0 | 0.00 | 0.00 | 0.00 | 86 | 1010.2 |
| 20260507052503 | 59 | 257 | 0.0 | 0.9 | 0.00 | 0.00 | 0.00 | 87 | 1010.0 |
| 20260507052004 | 59 | 234 | 0.0 | 0.0 | 0.00 | 0.00 | 0.00 | 88 | 1010.1 |
| 20260507051504 | 58 | 257 | 0.0 | 0.9 | 0.00 | 0.00 | 0.00 | 89 | 1010.0 |
| 20260507051003 | 58 | 279 | 0.0 | 0.9 | 0.00 | 0.00 | 0.00 | 90 | 1010.0 |
| 20260507050505 | 57 | 248 | 0.0 | 1.7 | 0.00 | 0.00 | 0.00 | 90 | 1010.1 |
| 20260507050004 | 57 | 251 | 0.0 | 1.7 | 0.00 | 0.00 | 0.00 | 90 | 1009.9 |
| 20260507045504 | 57 | 222 | 0.0 | 0.0 | 0.00 | 0.00 | 0.00 | 91 | 1009.8 |
| 20260507045003 | 57 | 222 | 0.0 | 0.0 | 0.00 | 0.00 | 0.00 | 91 | 1010.0 |
| 20260507044502 | 57 | 241 | 0.0 | 0.9 | 0.00 | 0.00 | 0.00 | 91 | 1009.9 |
| 20260507044004 | 57 | 218 | 0.0 | 0.0 | 0.00 | 0.00 | 0.00 | 91 | 1009.9 |
| 20260507043506 | 57 | 218 | 0.0 | 0.0 | 0.00 | 0.00 | 0.00 | 92 | 1009.8 |
| 20260507043005 | 57 | 188 | 0.9 | 0.9 | 0.00 | 0.00 | 0.00 | 91 | 1010.0 |
| 20260507042504 | 57 | 166 | 0.0 | 0.0 | 0.00 | 0.00 | 0.00 | 91 | 1010.0 |
| 20260507042002 | 57 | 215 | 0.0 | 0.0 | 0.00 | 0.00 | 0.00 | 91 | 1009.9 |
| 20260507041504 | 57 | 270 | 0.0 | 0.0 | 0.00 | 0.00 | 0.00 | 91 | 1009.9 |
| 20260507041002 | 57 | 265 | 0.9 | 1.7 | 0.00 | 0.00 | 0.00 | 90 | 1009.7 |
| 20260507040504 | 57 | 239 | 0.0 | 0.0 | 0.00 | 0.00 | 0.00 | 90 | 1009.9 |
| 20260507040003 | 57 | 242 | 0.0 | 0.0 | 0.00 | 0.00 | 0.00 | 90 | 1009.9 |
| 20260507035504 | 57 | 221 | 0.0 | 0.0 | 0.00 | 0.00 | 0.00 | 90 | 1009.7 |
| 20260507035003 | 57 | 221 | 0.9 | 0.9 | 0.00 | 0.00 | 0.00 | 90 | 1009.5 |
| 20260507034503 | 57 | 217 | 0.0 | 0.0 | 0.00 | 0.00 | 0.00 | 90 | 1009.5 |
| 20260507034006 | 57 | 217 | 0.0 | 0.0 | 0.00 | 0.00 | 0.00 | 90 | 1009.5 |
| 20260507033005 | 57 | 156 | 0.0 | 0.0 | 0.00 | 0.00 | 0.00 | 90 | 1009.5 |
| 20260507032505 | 57 | 152 | 0.9 | 1.7 | 0.00 | 0.00 | 0.00 | 90 | 1009.5 |
| 20260507032003 | 57 | 93 | 0.9 | 1.7 | 0.00 | 0.00 | 0.00 | 91 | 1009.3 |
| 20260507031503 | 57 | 332 | 0.0 | 0.0 | 0.00 | 0.00 | 0.00 | 88 | 1009.3 |
| 20260507031003 | 57 | 284 | 0.0 | 0.0 | 0.00 | 0.00 | 0.00 | 88 | 1009.2 |
| 20260507030505 | 57 | 327 | 0.0 | 0.0 | 0.00 | 0.00 | 0.00 | 88 | 1009.1 |
| 20260507030004 | 57 | 273 | 0.0 | 0.0 | 0.00 | 0.00 | 0.00 | 88 | 1009.1 |
| 20260507025504 | 57 | 273 | 0.9 | 0.9 | 0.00 | 0.00 | 0.00 | 88 | 1009.2 |
| 20260507025005 | 57 | 272 | 0.0 | 0.9 | 0.00 | 0.00 | 0.00 | 88 | 1009.0 |
| 20260507024505 | 57 | 272 | 0.0 | 0.0 | 0.00 | 0.00 | 0.00 | 88 | 1009.0 |
| 20260507024004 | 57 | 278 | 0.0 | 0.0 | 0.00 | 0.00 | 0.00 | 88 | 1009.2 |
| 20260507023003 | 57 | 279 | 0.0 | 0.9 | 0.00 | 0.00 | 0.00 | 88 | 1009.1 |
| 20260507022504 | 57 | 267 | 0.0 | 0.9 | 0.00 | 0.00 | 0.00 | 88 | 1009.0 |
| 20260507022004 | 57 | 267 | 0.0 | 0.0 | 0.00 | 0.00 | 0.00 | 88 | 1009.1 |
| 20260507021502 | 57 | 267 | 0.0 | 0.0 | 0.00 | 0.00 | 0.00 | 87 | 1009.0 |
| 20260507021002 | 57 | 267 | 0.0 | 0.0 | 0.00 | 0.00 | 0.00 | 87 | 1009.2 |
| 20260507020505 | 57 | 231 | 0.0 | 0.0 | 0.00 | 0.00 | 0.00 | 87 | 1009.1 |
| 20260507020007 | 57 | 231 | 0.0 | 0.0 | 0.00 | 0.00 | 0.00 | 87 | 1009.1 |
| 20260507015504 | 57 | 187 | 0.0 | 0.0 | 0.00 | 0.00 | 0.00 | 87 | 1009.1 |
| 20260507015003 | 58 | 194 | 0.0 | 0.9 | 0.00 | 0.00 | 0.00 | 86 | 1008.9 |
| 20260507014504 | 58 | 263 | 0.0 | 0.0 | 0.00 | 0.00 | 0.00 | 86 | 1008.9 |
| 20260507014003 | 58 | 290 | 0.9 | 2.6 | 0.00 | 0.00 | 0.00 | 86 | 1008.9 |
| 20260507013502 | 57 | 314 | 0.9 | 1.7 | 0.00 | 0.00 | 0.00 | 86 | 1008.9 |
| 20260507013003 | 57 | 237 | 0.0 | 0.0 | 0.00 | 0.00 | 0.00 | 86 | 1009.0 |
| 20260507012502 | 58 | 127 | 1.7 | 1.7 | 0.00 | 0.00 | 0.00 | 86 | 1009.4 |
| 20260507012003 | 57 | 304 | 0.0 | 0.9 | 0.00 | 0.00 | 0.00 | 87 | 1009.1 |
| 20260507011503 | 57 | 183 | 0.0 | 0.0 | 0.00 | 0.00 | 0.00 | 87 | 1009.1 |
| 20260507011002 | 57 | 246 | 0.0 | 0.9 | 0.00 | 0.00 | 0.00 | 87 | 1009.1 |
| 20260507010503 | 57 | 25 | 0.9 | 0.9 | 0.00 | 0.00 | 0.00 | 88 | 1008.9 |
| 20260507010004 | 57 | 251 | 0.0 | 0.9 | 0.00 | 0.00 | 0.00 | 88 | 1008.9 |
| 20260507005505 | 57 | 282 | 0.0 | 0.9 | 0.00 | 0.00 | 0.00 | 87 | 1008.9 |
| 20260507005003 | 57 | 285 | 0.0 | 0.0 | 0.00 | 0.00 | 0.00 | 87 | 1008.8 |
| 20260507004502 | 57 | 280 | 0.0 | 0.0 | 0.00 | 0.00 | 0.00 | 87 | 1009.0 |
| 20260507004003 | 57 | 310 | 0.9 | 0.9 | 0.00 | 0.00 | 0.00 | 86 | 1008.9 |
| 20260507003504 | 57 | 257 | 0.0 | 0.9 | 0.00 | 0.00 | 0.00 | 86 | 1009.0 |
| 20260507003004 | 58 | 228 | 0.0 | 1.7 | 0.00 | 0.00 | 0.00 | 86 | 1009.1 |
| 20260507002504 | 58 | 224 | 0.0 | 0.0 | 0.00 | 0.00 | 0.00 | 86 | 1009.2 |
| 20260507002005 | 58 | 184 | 0.0 | 0.0 | 0.00 | 0.00 | 0.00 | 86 | 1009.1 |
| 20260507001503 | 58 | 231 | 0.0 | 0.9 | 0.00 | 0.00 | 0.00 | 86 | 1009.2 |
| 20260507001003 | 58 | 194 | 0.0 | 1.7 | 0.00 | 0.00 | 0.00 | 86 | 1009.3 |
| 20260507000510 | 58 | 237 | 0.9 | 1.7 | 0.00 | 0.00 | 0.00 | 86 | 1009.1 |
| 20260507000005 | 58 | 220 | 0.0 | 0.9 | 0.00 | 0.00 | 0.00 | 86 | 1009.3 |
| 20260506235504 | 58 | 161 | 0.0 | 0.9 | 0.00 | 0.00 | 0.00 | 86 | 1009.2 |
| 20260506235003 | 58 | 272 | 1.7 | 1.7 | 0.00 | 0.00 | 0.00 | 86 | 1009.3 |
| 20260506234502 | 58 | 208 | 0.0 | 0.0 | 0.00 | 0.00 | 0.00 | 86 | 1009.2 |
| 20260506234003 | 58 | 139 | 0.0 | 0.0 | 0.00 | 0.00 | 0.00 | 86 | 1009.2 |
| 20260506233503 | 58 | 180 | 0.9 | 1.7 | 0.00 | 0.00 | 0.00 | 86 | 1009.1 |
| 20260506233005 | 58 | 208 | 1.7 | 2.6 | 0.00 | 0.00 | 0.00 | 87 | 1009.2 |
| 20260506232503 | 59 | 233 | 0.9 | 1.7 | 0.00 | 0.00 | 0.00 | 87 | 1009.1 |
| 20260506232002 | 59 | 138 | 0.9 | 2.6 | 0.00 | 0.00 | 0.00 | 86 | 1009.1 |
| 20260506231503 | 59 | 226 | 3.5 | 6.1 | 0.00 | 0.00 | 0.00 | 85 | 1009.2 |
| 20260506231003 | 59 | 206 | 2.6 | 2.6 | 0.00 | 0.00 | 0.00 | 84 | 1009.1 |